TimeAKDT,TemperatureF,Dew PointF,Humidity,Sea Level PressureIn,VisibilityMPH,Wind Direction,Wind SpeedMPH,Gust SpeedMPH,PrecipitationIn,Events,Conditions,WindDirDegrees,DateUTC
12:38 AM,26.6,24.8,93,30.16,9.0,WSW,9.2,-,0.00,Snow,Light Snow,250,2013-05-05 08:38:00
12:53 AM,27.0,25.0,92,30.17,9.0,WSW,9.2,-,0.00,Snow,Light Snow,250,2013-05-05 08:53:00
1:43 AM,26.6,24.8,93,30.18,9.0,West,8.1,-,0.00,Snow,Light Snow,260,2013-05-05 09:43:00
1:53 AM,27.0,24.1,89,30.19,9.0,West,8.1,-,0.00,Snow,Light Snow,260,2013-05-05 09:53:00
2:20 AM,26.6,24.8,93,30.18,9.0,West,5.8,-,0.00,Snow,Light Snow,260,2013-05-05 10:20:00
2:34 AM,26.6,24.8,93,30.18,7.0,West,5.8,-,0.00,Snow,Light Snow,260,2013-05-05 10:34:00
2:53 AM,27.0,25.0,92,30.19,9.0,WSW,5.8,-,0.00,Snow,Light Snow,250,2013-05-05 10:53:00
3:31 AM,26.6,24.8,93,30.19,8.0,West,6.9,-,0.00,Snow,Light Snow,260,2013-05-05 11:31:00
3:53 AM,28.0,25.0,88,30.19,9.0,WSW,9.2,-,0.00,Snow,Light Snow,250,2013-05-05 11:53:00
4:53 AM,27.0,24.1,89,30.19,9.0,WSW,9.2,-,0.00,Snow,Light Snow,250,2013-05-05 12:53:00
5:42 AM,26.6,21.2,80,30.19,10.0,West,12.7,-,0.00,,Overcast,260,2013-05-05 13:42:00
5:53 AM,26.1,21.9,84,30.20,10.0,WSW,12.7,-,0.00,,Overcast,250,2013-05-05 13:53:00
6:21 AM,26.6,21.2,80,30.20,10.0,West,11.5,-,N/A,,Overcast,260,2013-05-05 14:21:00
6:53 AM,25.0,21.9,88,30.20,10.0,WSW,12.7,-,N/A,,Overcast,250,2013-05-05 14:53:00
7:53 AM,24.1,21.0,88,30.21,10.0,West,13.8,-,N/A,,Overcast,260,2013-05-05 15:53:00
8:53 AM,23.0,19.9,88,30.22,10.0,West,11.5,-,N/A,,Overcast,260,2013-05-05 16:53:00
9:53 AM,23.0,19.9,88,30.23,10.0,West,12.7,-,N/A,,Overcast,260,2013-05-05 17:53:00
10:53 AM,24.1,19.0,81,30.24,10.0,WSW,10.4,-,N/A,,Overcast,240,2013-05-05 18:53:00
11:53 AM,23.0,19.0,85,30.23,10.0,WSW,6.9,-,N/A,,Overcast,250,2013-05-05 19:53:00
12:53 PM,24.1,18.0,77,30.24,9.0,WSW,5.8,-,0.00,Snow,Light Snow,240,2013-05-05 20:53:00
1:41 PM,24.8,17.6,74,30.24,9.0,SW,5.8,-,0.00,Snow,Light Snow,220,2013-05-05 21:41:00
1:53 PM,24.1,18.0,77,30.25,9.0,SSW,5.8,-,0.00,Snow,Light Snow,200,2013-05-05 21:53:00
2:53 PM,25.0,19.0,78,30.24,10.0,WSW,5.8,-,0.00,,Overcast,240,2013-05-05 22:53:00
3:53 PM,26.1,19.0,75,30.22,10.0,SSW,8.1,-,N/A,,Overcast,200,2013-05-05 23:53:00
4:53 PM,27.0,19.0,72,30.22,10.0,SSW,6.9,-,N/A,,Overcast,200,2013-05-06 00:53:00
5:18 PM,28.4,19.4,69,30.22,10.0,SSW,9.2,-,N/A,,Overcast,210,2013-05-06 01:18:00
5:53 PM,27.0,19.0,72,30.22,10.0,SSW,9.2,-,N/A,,Overcast,210,2013-05-06 01:53:00
6:53 PM,27.0,21.9,81,30.21,10.0,SSW,12.7,-,N/A,,Overcast,210,2013-05-06 02:53:00
7:53 PM,27.0,21.9,81,30.20,10.0,SSW,10.4,-,N/A,,Overcast,210,2013-05-06 03:53:00
8:53 PM,26.1,21.0,81,30.20,10.0,SW,10.4,-,N/A,,Overcast,220,2013-05-06 04:53:00
9:53 PM,26.1,19.9,78,30.20,10.0,SW,8.1,-,N/A,,Overcast,220,2013-05-06 05:53:00
10:53 PM,25.0,19.9,81,30.19,10.0,SSW,8.1,-,N/A,,Overcast,210,2013-05-06 06:53:00
11:53 PM,24.1,19.0,81,30.19,10.0,SSW,11.5,-,N/A,,Overcast,210,2013-05-06 07:53:00